Fayetteville, AR

6:38 AM CDT on July 22, 2017 (GMT -0500)
Drake

Weather History for KFYV - December, 2013

Change the Weather History Date:

Tuesday, December 3, 2013

  Actual Average Record
Temperature  
Mean Temperature 50 °F 40 °F  
Max Temperature 68 °F 51 °F 75 °F (2012)
Min Temperature 32 °F 30 °F 15 °F (1989)
Degree Days  
Heating Degree Days 15 25  
Month to date heating degree days 47 73  
Since 1 July heating degree days 936 902  
Moisture  
Dew Point 41 °F    
Average Humidity 71    
Maximum Humidity 100    
Minimum Humidity 42    
Precipitation  
Precipitation 0.00 in 0.12 in 1.30 in (1953)
Month to date precipitation 0.00 0.37  
Year to date precipitation 42.53 45.64  
Sea Level Pressure  
Sea Level Pressure 29.63 in    
Wind  
Wind Speed 3 mph (South)    
Max Wind Speed 15 mph    
Max Gust Speed 23 mph    
Visibility 5 miles    
Events Fog    
T = Trace of Precipitation, MM = Missing Value Source: NWS Daily Summary

Daily Weather History Graph

Daily Weather History Graph

Search for Another Location

Airport or City:

Trip Planner

Search our weather history database for the weather conditions in past years. The results will help you decide how hot, cold, wet, or windy it might be!

Date:

Astronomy

Dec. 03, 2013 Rise Set
Actual Time 7:10 AM CST 5:02 PM CST
Civil Twilight 6:42 AM CST 5:30 PM CST
Nautical Twilight 6:10 AM CST 6:02 PM CST
Astronomical Twilight 5:39 AM CST 6:33 PM CST
Moon 7:41 AM CST (12/3) 6:05 PM CST (12/3)
Length of Visible Light 10h 47m
Length of Day
9h 51m
New Moon, 1% of the Moon is Illuminated
Dec 3
New Moon
Dec 9
First Quarter
Dec 17
Full
Dec 25
Last Quarter
Jan 1
New

Hourly Weather History & Observations

Time (CST) Temp. Dew Point Humidity Pressure Visibility Wind Dir Wind Speed Gust Speed Precip Events Conditions
12:53 AM 36.0 °F 35.1 °F 97% 29.68 in 6.0 mi Calm Calm - N/A   Clear
1:30 AM 35.6 °F 35.6 °F 100% 29.67 in 2.0 mi Calm Calm - N/A   Clear
1:40 AM 33.8 °F 33.8 °F 100% 29.67 in 6.0 mi Calm Calm - N/A   Clear
1:53 AM 34.0 °F 34.0 °F 100% 29.66 in 3.0 mi Calm Calm - N/A   Clear
2:00 AM 35.6 °F 33.8 °F 93% 29.66 in 2.5 mi Calm Calm - N/A   Clear
2:05 AM 35.6 °F 35.6 °F 100% 29.66 in 1.2 mi Calm Calm - N/A   Partly Cloudy
2:12 AM 35.6 °F 33.8 °F 93% 29.66 in 1.0 mi Calm Calm - N/A   Mist
2:15 AM 35.6 °F 35.6 °F 100% 29.66 in 2.0 mi Calm Calm - N/A   Partly Cloudy
2:22 AM 35.6 °F 35.6 °F 100% 29.66 in 4.0 mi Calm Calm - N/A   Partly Cloudy
2:53 AM 33.1 °F 32.0 °F 96% 29.65 in 3.0 mi Calm Calm - N/A   Partly Cloudy
3:08 AM 33.8 °F 32.0 °F 93% 29.66 in 2.0 mi Calm Calm - N/A   Mostly Cloudy
3:12 AM 33.8 °F 32.0 °F 93% 29.66 in 0.8 mi Calm Calm - N/A   Mist
3:53 AM 33.1 °F 33.1 °F 100% 29.65 in 0.2 mi Calm Calm - N/A Fog Fog
4:53 AM 33.1 °F 33.1 °F 100% 29.64 in 0.2 mi Calm Calm - N/A Fog Fog
5:53 AM 34.0 °F 34.0 °F 100% 29.65 in 0.2 mi Calm Calm - N/A Fog Fog
6:53 AM 34.0 °F 34.0 °F 100% 29.65 in 0.2 mi Calm Calm - N/A Fog Fog
7:53 AM 34.0 °F 34.0 °F 100% 29.65 in 0.2 mi Calm Calm - N/A Fog Fog
8:53 AM 37.0 °F 37.0 °F 100% 29.67 in 0.2 mi Calm Calm - N/A Fog Fog
9:22 AM 39.2 °F 39.2 °F 100% 29.67 in 2.0 mi Calm Calm - N/A   Mostly Cloudy
9:31 AM 42.8 °F 42.8 °F 100% 29.67 in 3.0 mi Calm Calm - N/A   Scattered Clouds
9:53 AM 45.0 °F 45.0 °F 100% 29.68 in 6.0 mi Calm Calm - N/A   Clear
10:53 AM 59.0 °F 48.9 °F 69% 29.64 in 10.0 mi Calm Calm - N/A   Clear
11:53 AM 64.0 °F 46.9 °F 54% 29.62 in 10.0 mi South 8.1 mph - N/A   Clear
12:53 PM 66.0 °F 46.0 °F 48% 29.59 in 10.0 mi SSW 5.8 mph - N/A   Clear
1:53 PM 68.0 °F 45.0 °F 43% 29.54 in 10.0 mi Variable 5.8 mph - N/A   Clear
2:53 PM 66.9 °F 50.0 °F 54% 29.54 in 10.0 mi South 9.2 mph - N/A   Clear
3:53 PM 62.1 °F 51.1 °F 67% 29.56 in 10.0 mi SSE 9.2 mph - N/A   Clear
4:53 PM 55.9 °F 51.1 °F 84% 29.58 in 10.0 mi South 6.9 mph - N/A   Clear
5:53 PM 51.1 °F 48.9 °F 92% 29.59 in 10.0 mi Calm Calm - N/A   Clear
6:53 PM 55.0 °F 51.1 °F 86% 29.61 in 10.0 mi SSE 9.2 mph - N/A   Scattered Clouds
7:53 PM 54.0 °F 50.0 °F 86% 29.63 in 10.0 mi South 8.1 mph - N/A   Scattered Clouds
8:00 PM 53.6 °F 50.0 °F 88% 29.63 in 10.0 mi South 5.8 mph - N/A   Overcast
8:53 PM 54.0 °F 48.0 °F 80% 29.62 in 10.0 mi South 11.5 mph 18.4 mph N/A   Mostly Cloudy
9:40 PM 53.6 °F 48.2 °F 82% 29.62 in 10.0 mi South 8.1 mph - N/A   Scattered Clouds
9:53 PM 52.0 °F 46.9 °F 83% 29.62 in 10.0 mi SSE 5.8 mph - N/A   Clear
10:53 PM 44.1 °F 44.1 °F 100% 29.62 in 9.0 mi Calm Calm - N/A   Clear
11:47 PM 39.2 °F 39.2 °F 100% 29.62 in 2.5 mi Calm Calm - N/A   Partly Cloudy
11:53 PM 43.0 °F 42.1 °F 97% 29.61 in 1.0 mi Calm Calm - N/A   Mist